Location: Detroit
(42.3310°N, 83.0460°W)
Time: 01:16:24
(UTC-04:00)

A-11 Canister half - Pass Details

Date: 09 February 2023
Orbit: 1526 x 1682 km, 47.3° (Epoch: 20 March)

Event Time Altitude Azimuth Distance (km) Brightness Sun altitude
Rises 11:53:13 0° 295° (WNW) 4,707 11.2 31.8°
Reaches altitude 10° 11:56:33 10° 287° (WNW) 3,737 10.8 31.9°
Maximum altitude 12:04:47 35° 226° (SW) 2,338 10.7 32.3°
Drops below altitude 10° 12:13:15 10° 165° (SSE) 3,829 12.6 32.6°
Sets 12:16:45 0° 157° (SSE) 4,835 12.6 32.7°
